EW6851 Weather Reports


Display with metric or nautical units.
time (UTC)temp
F
wind
direction
speed
MPH
gust
MPH
rain 1hr
in
rain 24hr
in
rain mn
in
humidity
%
barometer
mb
20260507223703 68 154 5.0 6.0 0.00 0.00 0.00 68 1009.3
20260507223157 68 143 3.0 7.0 0.00 0.00 0.00 68 1009.2
20260507222700 68 102 1.0 7.0 0.00 0.00 0.00 68 1009.2
20260507222203 68 135 2.0 7.0 0.00 0.00 0.00 67 1009.3
20260507221657 68 166 4.0 4.0 0.00 0.00 0.00 68 1009.2
20260507221200 68 139 3.0 7.0 0.00 0.00 0.00 68 1009.3
20260507220700 68 163 0.0 9.0 0.00 0.00 0.00 68 1009.3
20260507220158 68 169 2.0 11.0 0.00 0.00 0.00 68 1009.4
20260507215704 68 158 3.0 9.0 0.00 0.00 0.00 68 1009.5
20260507215157 68 202 2.0 9.0 0.00 0.00 0.00 68 1009.6
20260507214657 68 198 3.0 5.0 0.00 0.00 0.00 68 1009.7
20260507214158 68 92 0.0 1.0 0.00 0.00 0.00 68 1009.6
20260507213657 68 92 0.0 3.0 0.00 0.00 0.00 67 1009.5
20260507213200 68 92 0.0 3.0 0.00 0.00 0.00 67 1009.4
20260507212658 68 169 0.0 8.0 0.00 0.00 0.00 68 1009.3
20260507212157 68 76 3.0 9.0 0.00 0.00 0.00 68 1009.4
20260507211700 68 88 7.0 8.0 0.00 0.00 0.00 69 1009.6
20260507211201 68 169 2.0 9.0 0.00 0.00 0.00 69 1009.6
20260507210701 68 150 9.0 11.0 0.00 0.00 0.00 69 1009.9
20260507210157 68 161 3.0 11.0 0.00 0.00 0.00 69 1009.8
20260507205658 68 175 4.0 9.0 0.00 0.00 0.00 68 1009.8
20260507205158 68 178 3.0 8.0 0.00 0.00 0.00 68 1009.7
20260507204704 68 180 4.0 8.0 0.00 0.00 0.00 68 1009.4
20260507204158 68 163 1.0 8.0 0.00 0.00 0.00 68 1009.3
20260507203701 69 167 3.0 10.0 0.00 0.00 0.00 67 1009.3
20260507203158 69 128 1.0 3.0 0.00 0.00 0.00 67 1009.3
20260507202701 69 102 0.0 7.0 0.00 0.00 0.00 67 1009.3
20260507202204 68 153 0.0 9.0 0.00 0.00 0.00 67 1009.3
20260507201658 69 203 4.0 11.0 0.00 0.00 0.00 67 1009.5
20260507201201 68 174 0.0 7.0 0.00 0.00 0.00 67 1009.5
20260507200658 68 187 2.0 8.0 0.00 0.00 0.00 68 1009.5
20260507200158 68 174 3.0 11.0 0.00 0.00 0.00 68 1009.6
20260507195701 68 163 1.0 9.0 0.00 0.00 0.00 68 1009.7
20260507195201 68 170 1.0 10.0 0.00 0.00 0.00 68 1009.8
20260507194658 68 170 5.0 11.0 0.00 0.00 0.00 68 1009.8
20260507194158 69 201 6.0 7.0 0.00 0.00 0.00 67 1009.7
20260507193658 68 223 3.0 3.0 0.00 0.00 0.00 67 1009.4
20260507193158 69 220 2.0 4.0 0.00 0.00 0.00 67 1009.3
20260507192701 69 208 0.0 3.0 0.00 0.00 0.00 67 1009.3
20260507192158 68 95 0.0 1.0 0.00 0.00 0.00 67 1009.1
20260507191701 68 95 0.0 2.0 0.00 0.00 0.00 67 1009.1
20260507191158 68 95 1.0 2.0 0.00 0.00 0.00 68 1009.0
20260507190704 68 95 0.0 0.0 0.00 0.00 0.00 68 1009.0
20260507190201 68 73 0.0 2.0 0.00 0.00 0.00 68 1009.1
20260507185658 68 196 3.0 7.0 0.00 0.00 0.00 68 1009.1
20260507185158 68 182 3.0 8.0 0.00 0.00 0.00 68 1009.1
20260507184658 68 222 1.0 10.0 0.00 0.00 0.00 68 1009.1
20260507184158 69 222 5.0 9.0 0.00 0.00 0.00 67 1009.0
20260507183658 69 232 4.0 7.0 0.00 0.00 0.00 67 1008.9
20260507183201 69 246 2.0 5.0 0.00 0.00 0.00 67 1008.9
20260507182704 69 211 2.0 4.0 0.00 0.00 0.00 67 1008.6
20260507182204 69 244 2.0 4.0 0.00 0.00 0.00 67 1008.4
20260507181701 69 184 0.0 2.0 0.00 0.00 0.00 67 1008.4
20260507181201 69 269 0.0 4.0 0.00 0.00 0.00 67 1008.3
20260507180658 69 249 2.0 6.0 0.00 0.00 0.00 66 1008.4
20260507180204 69 253 2.0 5.0 0.00 0.00 0.00 66 1008.6
20260507175701 69 204 2.0 4.0 0.00 0.00 0.00 66 1008.6
20260507175158 69 247 2.0 3.0 0.00 0.00 0.00 66 1008.6
20260507174701 69 199 0.0 5.0 0.00 0.00 0.00 66 1008.6
20260507174158 69 236 2.0 5.0 0.00 0.00 0.00 66 1008.7
20260507173658 69 250 3.0 7.0 0.00 0.00 0.00 66 1008.8
20260507173158 70 204 5.0 7.0 0.00 0.00 0.00 66 1008.8
20260507172658 70 111 0.0 0.0 0.00 0.00 0.00 65 1008.8
20260507172201 70 134 0.0 4.0 0.00 0.00 0.00 65 1008.8
20260507171659 70 238 3.0 5.0 0.00 0.00 0.00 65 1009.0
20260507171158 70 218 5.0 9.0 0.00 0.00 0.00 64 1009.1
20260507170701 70 186 4.0 8.0 0.00 0.00 0.00 64 1009.0
20260507170158 70 203 5.0 7.0 0.00 0.00 0.00 65 1009.1
20260507165658 70 226 4.0 11.0 0.00 0.00 0.00 64 1009.1
20260507165158 71 248 5.0 10.0 0.00 0.00 0.00 64 1008.9
20260507164701 71 225 10.0 10.0 0.00 0.00 0.00 63 1008.8
20260507164158 71 222 6.0 11.0 0.00 0.00 0.00 62 1008.8
20260507163658 71 194 3.0 9.0 0.00 0.00 0.00 62 1008.8
20260507163158 71 209 3.0 8.0 0.00 0.00 0.00 61 1008.6
20260507162659 71 244 6.0 10.0 0.00 0.00 0.00 61 1008.6
20260507162158 72 261 5.0 9.0 0.00 0.00 0.00 59 1008.5
20260507161701 72 244 7.0 8.0 0.00 0.00 0.00 59 1008.6
20260507161207 72 236 1.0 8.0 0.00 0.00 0.00 58 1008.5
20260507160707 72 59 7.0 7.0 0.00 0.00 0.00 57 1008.4
20260507160201 72 19 1.0 7.0 0.00 0.00 0.00 56 1008.3
20260507155658 72 244 3.0 7.0 0.00 0.00 0.00 57 1008.1
20260507155158 72 188 1.0 8.0 0.00 0.00 0.00 57 1008.2
20260507154701 72 63 7.0 13.0 0.00 0.00 0.00 55 1008.3
20260507154201 73 172 7.0 10.0 0.00 0.00 0.00 56 1008.5
20260507153658 72 92 5.0 15.0 0.00 0.00 0.00 57 1008.3
20260507153201 72 87 14.0 17.0 0.00 0.00 0.00 57 1008.0
20260507152658 73 73 3.0 12.0 0.00 0.00 0.00 54 1008.3
20260507152158 74 274 5.0 7.0 0.00 0.00 0.00 53 1008.4
20260507151701 75 221 3.0 4.0 0.00 0.00 0.00 54 1008.3
20260507151158 74 261 2.0 6.0 0.00 0.00 0.00 54 1008.3
20260507150658 74 205 3.0 8.0 0.00 0.00 0.00 55 1008.3
20260507150158 74 215 5.0 6.0 0.00 0.00 0.00 55 1008.1
20260507145658 73 214 3.0 7.0 0.00 0.00 0.00 56 1008.1
20260507145201 73 192 2.0 9.0 0.00 0.00 0.00 56 1008.1
20260507144701 73 220 3.0 9.0 0.00 0.00 0.00 55 1008.1
20260507144204 73 238 5.0 7.0 0.00 0.00 0.00 55 1008.2
20260507143701 74 171 0.0 12.0 0.00 0.00 0.00 55 1008.1
20260507143201 74 240 7.0 8.0 0.00 0.00 0.00 54 1008.1
20260507142701 73 302 1.0 6.0 0.00 0.00 0.00 55 1008.1
20260507142201 73 264 2.0 10.0 0.00 0.00 0.00 56 1008.2
20260507141701 73 289 4.0 15.0 0.00 0.00 0.00 54 1008.4
20260507141201 73 25 5.0 10.0 0.00 0.00 0.00 54 1008.2
20260507140701 73 338 9.0 10.0 0.00 0.00 0.00 54 1008.4
20260507140201 73 10 4.0 19.0 0.00 0.00 0.00 54 1008.0
20260507135701 74 115 4.0 11.0 0.00 0.00 0.00 53 1008.4
20260507135158 74 39 6.0 13.0 0.00 0.00 0.00 52 1008.4
20260507134701 74 299 7.0 7.0 0.00 0.00 0.00 52 1008.4
20260507134158 74 138 0.0 6.0 0.00 0.00 0.00 52 1008.5
20260507133707 74 300 2.0 11.0 0.00 0.00 0.00 52 1008.5
20260507133201 74 271 7.0 17.0 0.00 0.00 0.00 52 1008.5
20260507132658 73 96 15.0 18.0 0.00 0.00 0.00 51 1008.6
20260507132158 74 73 1.0 10.0 0.00 0.00 0.00 50 1009.1
20260507131658 75 311 3.0 10.0 0.00 0.00 0.00 50 1008.9
20260507131158 75 282 4.0 18.0 0.00 0.00 0.00 48 1008.7
20260507130704 75 117 2.0 5.0 0.00 0.00 0.00 49 1009.0
20260507130207 74 185 1.0 17.0 0.00 0.00 0.00 49 1009.0
20260507125658 75 105 8.0 14.0 0.00 0.00 0.00 48 1008.8
20260507125158 75 123 13.0 16.0 0.00 0.00 0.00 48 1008.9
20260507124704 76 313 7.0 9.0 0.00 0.00 0.00 46 1009.0
20260507124158 75 129 5.0 8.0 0.00 0.00 0.00 46 1009.1
20260507123658 75 132 4.0 15.0 0.00 0.00 0.00 47 1009.1
20260507123202 74 149 15.0 31.0 0.00 0.00 0.00 48 1008.8
20260507122705 74 152 4.0 20.0 0.00 0.00 0.00 45 1009.1
20260507122158 74 144 3.0 17.0 0.00 0.00 0.00 46 1009.1
20260507121659 74 348 6.0 15.0 0.00 0.00 0.00 45 1009.0
20260507121201 75 180 4.0 14.0 0.00 0.00 0.00 45 1009.3
20260507120658 74 98 6.0 15.0 0.00 0.00 0.00 45 1009.3
20260507120202 74 38 5.0 24.0 0.00 0.00 0.00 45 1009.1
20260507115658 74 109 16.0 17.0 0.00 0.00 0.00 44 1009.1
20260507115201 75 147 5.0 13.0 0.00 0.00 0.00 41 1009.3
20260507114658 76 139 1.0 14.0 0.00 0.00 0.00 40 1009.5
20260507114201 76 188 5.0 10.0 0.00 0.00 0.00 39 1009.5
20260507113658 75 213 1.0 13.0 0.00 0.00 0.00 39 1009.4
20260507113205 75 97 7.0 21.0 0.00 0.00 0.00 37 1009.6
20260507112658 76 128 10.0 14.0 0.00 0.00 0.00 36 1009.8
20260507112158 76 91 8.0 17.0 0.00 0.00 0.00 35 1009.7
20260507111701 77 110 5.0 10.0 0.00 0.00 0.00 34 1009.7
20260507111201 77 5 2.0 9.0 0.00 0.00 0.00 33 1009.9
20260507110659 77 61 3.0 17.0 0.00 0.00 0.00 32 1009.9
20260507110158 77 92 9.0 16.0 0.00 0.00 0.00 32 1009.8
20260507105704 76 167 9.0 22.0 0.00 0.00 0.00 31 1010.0
20260507105158 76 21 6.0 18.0 0.00 0.00 0.00 31 1009.8
20260507104701 76 239 5.0 14.0 0.00 0.00 0.00 31 1009.8
20260507104158 76 70 7.0 9.0 0.00 0.00 0.00 31 1009.9
20260507103658 75 96 2.0 16.0 0.00 0.00 0.00 31 1010.1
20260507103158 75 51 13.0 27.0 0.00 0.00 0.00 31 1010.2
20260507102658 75 153 5.0 20.0 0.00 0.00 0.00 31 1010.2
20260507102158 75 78 2.0 18.0 0.00 0.00 0.00 30 1010.0
20260507101658 75 148 13.0 15.0 0.00 0.00 0.00 30 1010.2
20260507101204 75 107 2.0 14.0 0.00 0.00 0.00 30 1010.1
20260507100707 75 102 10.0 24.0 0.00 0.00 0.00 30 1010.1
20260507100204 75 76 8.0 21.0 0.00 0.00 0.00 30 1010.3
20260507095658 74 128 8.0 32.0 0.00 0.00 0.00 30 1010.6
20260507095158 75 68 10.0 22.0 0.00 0.00 0.00 30 1010.5
20260507094701 75 65 9.0 24.0 0.00 0.00 0.00 29 1010.5
20260507094158 75 96 16.0 22.0 0.00 0.00 0.00 29 1010.8
20260507093658 74 83 15.0 24.0 0.00 0.00 0.00 29 1010.5
20260507093158 75 73 14.0 22.0 0.00 0.00 0.00 31 1010.5
20260507092658 74 80 15.0 25.0 0.00 0.00 0.00 31 1010.4
20260507092158 74 84 13.0 19.0 0.00 0.00 0.00 32 1010.5
20260507091658 74 133 8.0 26.0 0.00 0.00 0.00 32 1010.7
20260507091201 74 72 4.0 15.0 0.00 0.00 0.00 34 1010.6
20260507090658 73 123 4.0 17.0 0.00 0.00 0.00 34 1010.5
20260507090158 73 125 9.0 27.0 0.00 0.00 0.00 33 1010.6
20260507085658 73 55 10.0 24.0 0.00 0.00 0.00 34 1010.6
20260507085205 73 99 20.0 22.0 0.00 0.00 0.00 34 1010.6
20260507084701 73 96 17.0 23.0 0.00 0.00 0.00 35 1010.8
20260507084158 73 124 9.0 28.0 0.00 0.00 0.00 35 1010.8
20260507083658 72 87 8.0 34.0 0.00 0.00 0.00 38 1010.7
20260507083201 72 85 21.0 33.0 0.00 0.00 0.00 38 1010.8
20260507082701 72 87 11.0 22.0 0.00 0.00 0.00 39 1011.0
20260507082201 72 63 7.0 25.0 0.00 0.00 0.00 38 1010.8
20260507081658 72 128 7.0 21.0 0.00 0.00 0.00 40 1010.8
20260507081201 72 54 10.0 22.0 0.00 0.00 0.00 41 1010.9
20260507080704 72 183 1.0 22.0 0.00 0.00 0.00 40 1010.9
20260507080158 72 213 7.0 23.0 0.00 0.00 0.00 41 1011.1
20260507075704 72 113 7.0 16.0 0.00 0.00 0.00 43 1011.2
20260507075201 72 65 2.0 13.0 0.00 0.00 0.00 43 1011.2
20260507074658 72 112 9.0 18.0 0.00 0.00 0.00 42 1011.3
20260507074201 72 176 2.0 9.0 0.00 0.00 0.00 44 1011.4
20260507073658 71 128 8.0 14.0 0.00 0.00 0.00 45 1011.5
20260507073202 71 13 3.0 10.0 0.00 0.00 0.00 45 1011.6
20260507072658 71 115 9.0 13.0 0.00 0.00 0.00 44 1011.6
20260507072158 70 103 3.0 13.0 0.00 0.00 0.00 43 1011.7
20260507071701 70 24 7.0 18.0 0.00 0.00 0.00 45 1011.8
20260507071202 70 324 4.0 18.0 0.00 0.00 0.00 45 1011.8
20260507070659 70 177 1.0 12.0 0.00 0.00 0.00 46 1011.8
20260507070158 69 170 6.0 16.0 0.00 0.00 0.00 50 1011.8
20260507065701 69 122 3.0 13.0 0.00 0.00 0.00 46 1011.8
20260507065202 69 52 2.0 12.0 0.00 0.00 0.00 48 1011.8
20260507064701 69 89 14.0 16.0 0.00 0.00 0.00 46 1011.8
20260507064201 69 63 4.0 13.0 0.00 0.00 0.00 48 1011.9
20260507063659 69 56 4.0 16.0 0.00 0.00 0.00 50 1011.8
20260507063201 68 82 10.0 10.0 0.00 0.00 0.00 49 1011.8
20260507062659 68 44 4.0 6.0 0.00 0.00 0.00 51 1011.9
20260507062159 68 107 0.0 8.0 0.00 0.00 0.00 51 1012.0
20260507061701 68 91 6.0 7.0 0.00 0.00 0.00 48 1012.0
20260507061158 68 109 2.0 5.0 0.00 0.00 0.00 48 1012.0
20260507060659 67 338 0.0 0.0 0.00 0.00 0.00 48 1011.9
20260507060202 67 338 0.0 0.0 0.00 0.00 0.00 48 1012.1
20260507055658 67 47 0.0 0.0 0.00 0.00 0.00 48 1012.2
20260507055159 67 47 0.0 0.0 0.00 0.00 0.00 48 1012.1
20260507054702 67 281 0.0 1.0 0.00 0.00 0.00 48 1012.0
20260507054202 67 270 0.0 4.0 0.00 0.00 0.00 46 1012.0
20260507053659 67 286 3.0 5.0 0.00 0.00 0.00 46 1012.1
20260507053158 66 179 0.0 0.0 0.00 0.00 0.00 45 1012.2
20260507052702 66 178 0.0 3.0 0.00 0.00 0.00 45 1012.0
20260507052159 67 186 2.0 4.0 0.00 0.00 0.00 45 1011.9
20260507051702 66 96 0.0 2.0 0.00 0.00 0.00 44 1011.9
20260507051208 66 113 0.0 2.0 0.00 0.00 0.00 46 1012.0
20260507050702 66 107 0.0 2.0 0.00 0.00 0.00 45 1012.0
20260507050202 66 106 1.0 2.0 0.00 0.00 0.00 45 1012.0
20260507045659 66 187 1.0 3.0 0.00 0.00 0.00 44 1011.9
20260507045202 66 96 1.0 4.0 0.00 0.00 0.00 44 1011.9
20260507044702 66 230 2.0 4.0 0.00 0.00 0.00 44 1011.9
20260507044202 66 221 3.0 3.0 0.00 0.00 0.00 44 1012.0
20260507043659 66 240 0.0 1.0 0.00 0.00 0.00 43 1011.9
20260507043159 66 204 0.0 4.0 0.00 0.00 0.00 44 1011.9
20260507042659 65 84 0.0 3.0 0.00 0.00 0.00 46 1011.8
20260507042202 65 142 0.0 2.0 0.00 0.00 0.00 49 1011.9
20260507041659 65 142 1.0 1.0 0.00 0.00 0.00 48 1012.0
20260507041159 65 142 0.0 1.0 0.00 0.00 0.00 48 1011.9
20260507040659 66 142 0.0 4.0 0.00 0.00 0.00 48 1011.8
20260507040159 66 131 3.0 4.0 0.00 0.00 0.00 47 1012.0
20260507035702 66 155 0.0 2.0 0.00 0.00 0.00 45 1012.0
20260507035202 66 246 1.0 3.0 0.00 0.00 0.00 44 1012.2
20260507034659 66 246 2.0 3.0 0.00 0.00 0.00 46 1012.1
20260507034159 66 246 2.0 4.0 0.00 0.00 0.00 46 1012.1
20260507033659 66 225 2.0 3.0 0.00 0.00 0.00 47 1012.1
20260507033159 66 242 1.0 4.0 0.00 0.00 0.00 48 1011.9
20260507032702 66 197 0.0 0.0 0.00 0.00 0.00 48 1011.8
20260507032202 66 197 0.0 2.0 0.00 0.00 0.00 48 1011.8
20260507031705 66 198 0.0 3.0 0.00 0.00 0.00 47 1011.9
20260507031159 66 248 0.0 3.0 0.00 0.00 0.00 46 1011.9
20260507030659 66 150 1.0 3.0 0.00 0.00 0.00 46 1012.1
20260507030205 66 184 0.0 2.0 0.00 0.00 0.00 47 1012.0
20260507025659 66 184 1.0 4.0 0.00 0.00 0.00 48 1012.1
20260507025202 66 110 0.0 4.0 0.00 0.00 0.00 47 1012.0
20260507024705 66 134 1.0 4.0 0.00 0.00 0.00 48 1012.0
20260507024205 67 117 3.0 5.0 0.00 0.00 0.00 47 1012.2
20260507023659 67 171 0.0 6.0 0.00 0.00 0.00 46 1012.1
20260507023205 68 128 0.0 3.0 0.00 0.00 0.00 44 1012.3
20260507022659 68 142 0.0 3.0 0.00 0.00 0.00 43 1012.1
20260507022202 68 218 0.0 0.0 0.00 0.00 0.00 42 1012.1
20260507021659 68 217 0.0 0.0 0.00 0.00 0.00 41 1012.0
20260507021202 68 218 0.0 6.0 0.00 0.00 0.00 41 1012.0
20260507020702 68 200 0.0 5.0 0.00 0.00 0.00 41 1012.0
20260507020156 68 221 2.0 7.0 0.00 0.00 0.00 41 1012.1
20260507015656 68 273 0.0 3.0 0.00 0.00 0.00 42 1012.1
20260507015156 68 273 0.0 1.0 0.00 0.00 0.00 42 1012.0
20260507014659 68 273 0.0 4.0 0.00 0.00 0.00 43 1012.2
20260507014156 68 355 0.0 2.0 0.00 0.00 0.00 43 1012.0
20260507013656 68 44 1.0 3.0 0.00 0.00 0.00 42 1012.0
20260507013156 68 5 0.0 2.0 0.00 0.00 0.00 43 1012.0
20260507012659 68 5 0.0 4.0 0.00 0.00 0.00 43 1011.7
20260507012202 68 355 4.0 6.0 0.00 0.00 0.00 43 1011.4
20260507011656 68 36 0.0 0.0 0.00 0.00 0.00 43 1011.8
20260507011156 68 320 0.0 2.0 0.00 0.00 0.00 43 1012.1
20260507010702 68 254 1.0 3.0 0.00 0.00 0.00 43 1012.1
20260507010159 68 270 0.0 4.0 0.00 0.00 0.00 43 1012.1
20260507005702 68 221 2.0 5.0 0.00 0.00 0.00 43 1012.0
20260507005159 68 234 0.0 3.0 0.00 0.00 0.00 44 1011.8
20260507004656 68 275 1.0 4.0 0.00 0.00 0.00 44 1011.9
20260507004203 69 295 4.0 4.0 0.00 0.00 0.00 44 1012.0
20260507003657 69 11 0.0 0.0 0.00 0.00 0.00 43 1012.0
20260507003156 69 312 0.0 0.0 0.00 0.00 0.00 43 1011.8
20260507002659 69 312 0.0 0.0 0.00 0.00 0.00 43 1012.0
20260507002157 69 5 0.0 0.0 0.00 0.00 0.00 43 1011.9
20260507001659 69 276 0.0 1.0 0.00 0.00 0.00 43 1012.0
20260507001159 69 355 0.0 0.0 0.00 0.00 0.00 43 1012.1
20260507000656 69 292 0.0 0.0 0.00 0.00 0.00 43 1012.2
20260507000159 69 128 0.0 3.0 0.00 0.00 0.00 42 1012.2
20260506235657 69 173 0.0 5.0 0.00 0.00 0.00 43 1012.2
20260506235159 69 186 3.0 9.0 0.00 0.00 0.00 42 1012.2
20260506234656 69 188 5.0 10.0 0.00 0.00 0.00 42 1012.3
20260506234159 69 202 6.0 9.0 0.00 0.00 0.00 41 1012.2
20260506233700 70 219 5.0 13.0 0.00 0.00 0.00 40 1012.3
20260506233156 70 179 10.0 14.0 0.00 0.00 0.00 39 1012.3
20260506232656 70 200 14.0 14.0 0.00 0.00 0.00 39 1012.4
20260506232157 70 196 12.0 12.0 0.00 0.00 0.00 39 1012.4
20260506231700 70 199 11.0 14.0 0.00 0.00 0.00 37 1012.4
20260506231156 70 169 7.0 16.0 0.00 0.00 0.00 37 1012.3
20260506230656 70 197 10.0 18.0 0.00 0.00 0.00 38 1012.2
20260506230200 70 202 7.0 18.0 0.00 0.00 0.00 39 1012.2
20260506225656 70 188 13.0 20.0 0.00 0.00 0.00 39 1012.1
20260506225157 70 200 12.0 20.0 0.00 0.00 0.00 40 1012.0
20260506224657 70 186 12.0 19.0 0.00 0.00 0.00 38 1012.0
20260506224157 70 155 8.0 19.0 0.00 0.00 0.00 38 1011.9